OBJECT B

基本信息
目录编号:
56154
目录名称:
OBJECT B
国际标识:
2023-047B
轨道中心:
EARTH
物体状态:
在轨
发射日期:
2023-03-30 UTC
国别:
中国 (CN)
轨道信息
数据来源: 国际轨道数据
星历时间: 2026-09-09T20:54:51+0800
半长轴: 6901.272km
偏心率: 0.000149
轨道倾角: 97.501°
近地点辐角: 110.183°
升交点赤经: 78.465°
平近点角: 249.956°
近地点: 522.106km
远地点: 524.164km
周期: 95.094分钟
每日圈数: 15.142901
详细信息
发射场:
TSC
轨道高度:
LEO
数据来源:
AOE Working Group
参考系:
TEME
时间系统:
UTC
历元类型:
SGP4
2D轨道图
3D轨道图
轨道高度分析图
轨道倾角分析图
轨道综合分析图
查看轨道综合分析图